Burlington, VT

1:51 PM EDT on March 26, 2017 (GMT -0400)
Burlington International

Weather History for KBTV - April, 2002

Change the Weather History Date:

Thursday, April 25, 2002

  Actual Average Record
Temperature  
Mean Temperature 46 °F 49 °F  
Max Temperature 57 °F 60 °F 86 °F (2009)
Min Temperature 35 °F 38 °F 20 °F (1919)
Degree Days  
Heating Degree Days 19 16  
Month to date heating degree days 536  
Since 1 July heating degree days 7000  
Cooling Degree Days 0 0  
Month to date cooling degree days 0  
Year to date cooling degree days 0  
Moisture  
Dew Point 34 °F    
Average Humidity 75    
Maximum Humidity 100    
Minimum Humidity 36    
Precipitation  
Precipitation 0.30 in 0.09 in 1.09 in (1945)
Month to date precipitation 2.31  
Year to date precipitation 8.35  
Snow  
Snow 0.00 in 0.10 in 0.50 in (1930)
Month to date snowfall 4.3  
Since 1 July snowfall 80.9  
Snow Depth -    
Sea Level Pressure  
Sea Level Pressure 29.97 in    
Wind  
Wind Speed 11 mph (South)    
Max Wind Speed 26 mph    
Max Gust Speed 34 mph    
Visibility 9 miles    
Events Rain    
T = Trace of Precipitation, MM = Missing Value Source: NWS Daily Summary

Daily Weather History Graph

Daily Weather History Graph

Search for Another Location

Airport or City:

Trip Planner

Search our weather history database for the weather conditions in past years. The results will help you decide how hot, cold, wet, or windy it might be!

Date:

Astronomy

Apr. 25, 2002 Rise Set
Actual Time 5:52 AM EDT 7:49 PM EDT
Civil Twilight 5:21 AM EDT 8:20 PM EDT
Nautical Twilight 4:42 AM EDT 8:59 PM EDT
Astronomical Twilight 4:00 AM EDT 9:41 PM EDT
Moon 6:07 PM EDT (4/25) 5:25 AM EDT (4/25)
Length of Visible Light 14h 59m
Length of Day
13h 57m
Waxing Gibbous, 97% of the Moon is Illuminated
Apr 25
Waxing Gibbous
Apr 26
Full
May 4
Last Quarter
May 12
New
May 19
First Quarter

Hourly Weather History & Observations

Time (EDT) Temp. Windchill Dew Point Humidity Pressure Visibility Wind Dir Wind Speed Gust Speed Precip Events Conditions
12:54 AM 35.1 °F 32.2 °F 32.0 °F 89% 30.13 in 10.0 mi ESE 3.5 mph - N/A   Clear
1:54 AM 37.9 °F - 30.0 °F 73% 30.09 in 10.0 mi Calm Calm - N/A   Clear
2:54 AM 37.0 °F 33.3 °F 28.9 °F 73% 30.06 in 10.0 mi East 4.6 mph - N/A   Clear
3:54 AM 39.9 °F 35.8 °F 26.1 °F 58% 30.06 in 10.0 mi SSE 5.8 mph - N/A   Clear
4:54 AM 44.1 °F 38.1 °F 26.1 °F 49% 30.05 in 10.0 mi South 11.5 mph - N/A   Clear
5:54 AM 45.0 °F 38.9 °F 27.0 °F 49% 30.05 in 10.0 mi South 12.7 mph - N/A   Clear
6:54 AM 46.0 °F 39.6 °F 28.9 °F 51% 30.04 in 10.0 mi South 15.0 mph - N/A   Clear
7:54 AM 50.0 °F - 28.9 °F 44% 30.01 in 10.0 mi South 19.6 mph 27.6 mph N/A   Clear
8:54 AM 50.0 °F - 28.0 °F 43% 29.98 in 10.0 mi South 26.5 mph 34.5 mph N/A   Partly Cloudy
9:54 AM 53.1 °F - 30.9 °F 43% 29.95 in 10.0 mi South 21.9 mph 31.1 mph N/A   Partly Cloudy
10:54 AM 55.9 °F - 30.0 °F 37% 29.91 in 10.0 mi South 24.2 mph 34.5 mph N/A   Scattered Clouds
11:54 AM 57.0 °F - 30.0 °F 36% 29.88 in 10.0 mi South 23.0 mph 32.2 mph N/A   Mostly Cloudy
12:54 PM 55.0 °F - 30.0 °F 38% 29.87 in 10.0 mi South 23.0 mph 31.1 mph N/A   Overcast
1:54 PM 54.0 °F - 32.0 °F 43% 29.86 in 10.0 mi South 20.7 mph 29.9 mph N/A   Overcast
2:54 PM 46.0 °F 39.3 °F 41.0 °F 83% 29.92 in 9.0 mi SW 16.1 mph 25.3 mph 0.00 in Rain Light Rain
3:12 PM 42.8 °F 35.4 °F 42.8 °F 100% 29.92 in 4.0 mi SSW 15.0 mph 26.5 mph 0.03 in Rain Rain
3:54 PM 42.1 °F 33.6 °F 41.0 °F 96% 29.94 in 4.0 mi South 18.4 mph 27.6 mph 0.11 in Rain Rain
4:54 PM 42.1 °F 34.5 °F 42.1 °F 100% 29.94 in 6.0 mi South 15.0 mph - 0.05 in Rain Light Rain
5:54 PM 41.0 °F 33.9 °F 41.0 °F 100% 29.96 in 6.0 mi SSW 12.7 mph - 0.03 in Rain Light Rain
6:04 PM 39.2 °F 31.6 °F 39.2 °F 100% 29.95 in 8.0 mi SSW 12.7 mph - 0.01 in Rain Light Rain
6:21 PM 41.0 °F 34.3 °F 41.0 °F 100% 29.95 in 7.0 mi SSW 11.5 mph - 0.02 in Rain Light Rain
6:54 PM 39.9 °F 33.4 °F 39.9 °F 100% 29.97 in 3.0 mi SW 10.4 mph - 0.07 in Rain Rain
7:54 PM 39.0 °F 33.4 °F 39.0 °F 100% 29.96 in 10.0 mi SSE 8.1 mph - 0.04 in Rain Light Rain
8:06 PM 39.2 °F 33.6 °F 39.2 °F 100% 29.95 in 10.0 mi South 8.1 mph - 0.00 in   Overcast
8:54 PM 39.0 °F 34.8 °F 37.9 °F 96% 29.97 in 10.0 mi South 5.8 mph - 0.00 in   Mostly Cloudy
9:54 PM 39.0 °F 32.3 °F 37.9 °F 96% 29.96 in 10.0 mi South 10.4 mph - N/A   Overcast
10:54 PM 37.9 °F 31.5 °F 37.0 °F 97% 29.96 in 10.0 mi South 9.2 mph - N/A   Overcast
11:54 PM 37.9 °F 32.1 °F 37.0 °F 97% 29.97 in 10.0 mi SSW 8.1 mph - N/A   Overcast